Location: Seasalter
(51.3333°N, 1.0167°E)
Time: 11:40:52
(UTC+00:00)

H-2A R/B - Pass Details

Date: 26 September 2023
Orbit: 731 x 835 km, 98.2° (Epoch: 10 December)

Event Time Altitude Azimuth Distance (km) Brightness Sun altitude
Rises 04:28:34 0° 18° (NNE) 3,384 5.8 -13.1°
Reaches altitude 10° 04:31:03 10° 25° (NNE) 2,453 5.2 -12.7°
Maximum altitude 04:36:16 45° 98° (E) 1,137 3.4 -11.9°
Drops below altitude 10° 04:41:27 10° 170° (S) 2,439 4.6 -11.1°
Sets 04:43:54 0° 177° (S) 3,362 5.2 -10.8°
